Change the Weather History Date:

Saturday, November 17, 2012

  Actual Average Record
Temperature  
Mean Temperature 34 °F -  
Max Temperature 41 °F 30 °F 57 °F (2001)
Min Temperature 28 °F 19 °F 0 °F (2005)
Degree Days  
Heating Degree Days 30    
Moisture  
Dew Point 30 °F    
Average Humidity 80    
Maximum Humidity 93    
Minimum Humidity 70    
Precipitation  
Precipitation 0.00 in - - ()
Sea Level Pressure  
Sea Level Pressure 30.26 in    
Wind  
Wind Speed 6 mph (SSE)    
Max Wind Speed 12 mph    
Max Gust Speed 16 mph    
Visibility 7 miles    
Events      
Averages and records for this station are not official NWS values.
T = Trace of Precipitation, MM = Missing Value Source: NWS Daily Summary

Daily Weather History Graph

Daily Weather History Graph

Search for Another Location

Airport or City:

Trip Planner

Search our weather history database for the weather conditions in past years. The results will help you decide how hot, cold, wet, or windy it might be!

Date:

Astronomy

Nov. 17, 2012 Rise Set
Actual Time 7:11 AM CST 4:21 PM CST
Civil Twilight 6:37 AM CST 4:55 PM CST
Nautical Twilight 5:59 AM CST 5:33 PM CST
Astronomical Twilight 5:22 AM CST 6:10 PM CST
Moon 10:56 AM CST (11/17) 8:32 PM CST (11/17)
Length of Visible Light 10h 18m
Length of Day
9h 10m
Waxing Crescent, 20% of the Moon is Illuminated
Nov 17
Waxing Crescent
Nov 20
First Quarter
Nov 28
Full
Dec 6
Last Quarter
Dec 13
New

Hourly Weather History & Observations

Time (CST) Temp. Windchill Dew Point Humidity Pressure Visibility Wind Dir Wind Speed Gust Speed Precip Events Conditions
12:14 AM 28.4 °F 23.3 °F 24.8 °F 86% 30.32 in 10.0 mi South 4.6 mph - N/A   Scattered Clouds
12:34 AM 28.4 °F 22.2 °F 24.8 °F 86% 30.31 in 10.0 mi South 5.8 mph - N/A   Overcast
12:54 AM 30.2 °F 23.4 °F 24.8 °F 80% 30.31 in 10.0 mi South 6.9 mph - N/A   Overcast
1:13 AM 30.2 °F 25.4 °F 26.6 °F 86% 30.31 in 10.0 mi South 4.6 mph - N/A   Overcast
1:34 AM 30.2 °F 23.4 °F 26.6 °F 86% 30.31 in 10.0 mi South 6.9 mph - N/A   Overcast
1:53 AM 30.2 °F 23.4 °F 26.6 °F 86% 30.31 in 10.0 mi South 6.9 mph - N/A   Overcast
2:14 AM 30.2 °F 24.3 °F 26.6 °F 86% 30.31 in 10.0 mi South 5.8 mph - N/A   Overcast
2:33 AM 30.2 °F 23.4 °F 26.6 °F 86% 30.31 in 10.0 mi South 6.9 mph - N/A   Overcast
2:54 AM 30.2 °F 25.4 °F 26.6 °F 86% 30.30 in 10.0 mi South 4.6 mph - N/A   Overcast
3:13 AM 30.2 °F 25.4 °F 26.6 °F 86% 30.30 in 10.0 mi SSE 4.6 mph - N/A   Overcast
3:34 AM 30.2 °F 24.3 °F 26.6 °F 86% 30.29 in 7.0 mi South 5.8 mph - N/A   Overcast
3:54 AM 30.2 °F 25.4 °F 26.6 °F 86% 30.29 in 7.0 mi South 4.6 mph - N/A   Overcast
4:13 AM 30.2 °F 24.3 °F 28.4 °F 93% 30.29 in 5.0 mi SSE 5.8 mph - N/A   Overcast
4:33 AM 30.2 °F 25.4 °F 28.4 °F 93% 30.29 in 4.0 mi South 4.6 mph - N/A   Overcast
4:54 AM 30.2 °F 23.4 °F 28.4 °F 93% 30.28 in 3.0 mi SE 6.9 mph - N/A   Overcast
5:14 AM 30.2 °F 24.3 °F 28.4 °F 93% 30.28 in 2.5 mi SSE 5.8 mph - N/A   Overcast
5:33 AM 30.2 °F 23.4 °F 28.4 °F 93% 30.28 in 2.5 mi SSE 6.9 mph - N/A   Overcast
5:54 AM 32.0 °F 25.6 °F 28.4 °F 87% 30.28 in 2.5 mi SSE 6.9 mph - N/A   Overcast
6:14 AM 32.0 °F 26.4 °F 28.4 °F 87% 30.28 in 2.0 mi SSE 5.8 mph - N/A   Overcast
6:33 AM 32.0 °F 27.5 °F 28.4 °F 87% 30.27 in 2.0 mi SSE 4.6 mph - N/A   Overcast
6:54 AM 32.0 °F 26.4 °F 28.4 °F 87% 30.27 in 2.5 mi SE 5.8 mph - N/A   Overcast
7:13 AM 32.0 °F 25.6 °F 28.4 °F 87% 30.27 in 2.0 mi SSE 6.9 mph - N/A   Overcast
7:34 AM 32.0 °F 27.5 °F 28.4 °F 87% 30.27 in 2.0 mi SSE 4.6 mph - N/A   Overcast
7:54 AM 33.8 °F 28.6 °F 28.4 °F 81% 30.27 in 2.0 mi SSE 5.8 mph - N/A   Overcast
8:13 AM 33.8 °F 28.6 °F 28.4 °F 81% 30.27 in 2.5 mi SSE 5.8 mph - N/A   Overcast
8:34 AM 33.8 °F 28.6 °F 30.2 °F 87% 30.27 in 2.5 mi SSE 5.8 mph - N/A   Overcast
8:54 AM 33.8 °F 29.6 °F 30.2 °F 87% 30.27 in 3.0 mi SE 4.6 mph - N/A   Overcast
9:13 AM 33.8 °F 25.3 °F 30.2 °F 87% 30.27 in 3.0 mi SSE 11.5 mph - N/A   Overcast
9:34 AM 33.8 °F 25.8 °F 30.2 °F 87% 30.26 in 3.0 mi SE 10.4 mph - N/A   Overcast
9:54 AM 33.8 °F 27.0 °F 30.2 °F 87% 30.27 in 4.0 mi South 8.1 mph - N/A   Overcast
10:13 AM 35.6 °F 29.2 °F 30.2 °F 81% 30.27 in 4.0 mi SSE 8.1 mph - N/A   Haze
10:34 AM 35.6 °F 28.0 °F 30.2 °F 81% 30.27 in 3.0 mi SSE 10.4 mph - N/A   Haze
10:53 AM 37.4 °F 32.1 °F 30.2 °F 75% 30.27 in 4.0 mi SSE 6.9 mph 16.1 mph N/A   Haze
11:14 AM 37.4 °F 30.8 °F 30.2 °F 75% 30.26 in 4.0 mi SE 9.2 mph - N/A   Haze
11:33 AM 37.4 °F 32.8 °F 30.2 °F 75% 30.25 in 4.0 mi South 5.8 mph - N/A   Haze
11:53 AM 37.4 °F 32.1 °F 30.2 °F 75% 30.25 in 4.0 mi SSE 6.9 mph - N/A   Haze
12:14 PM 37.4 °F 33.8 °F 30.2 °F 75% 30.25 in 5.0 mi SSE 4.6 mph - N/A   Haze
12:33 PM 37.4 °F 32.1 °F 30.2 °F 75% 30.24 in 4.0 mi SSE 6.9 mph - N/A   Haze
12:53 PM 37.4 °F 31.4 °F 30.2 °F 75% 30.24 in 5.0 mi SSE 8.1 mph - N/A   Haze
1:14 PM 39.2 °F 35.0 °F 30.2 °F 70% 30.23 in 7.0 mi SSE 5.8 mph - N/A   Clear
1:34 PM 39.2 °F 33.6 °F 30.2 °F 70% 30.23 in 7.0 mi SSE 8.1 mph - N/A   Clear
1:53 PM 37.4 °F 33.8 °F 30.2 °F 75% 30.23 in 5.0 mi SE 4.6 mph - N/A   Haze
2:14 PM 37.4 °F 32.1 °F 30.2 °F 75% 30.23 in 7.0 mi SSE 6.9 mph - N/A   Clear
2:33 PM 37.4 °F 32.8 °F 30.2 °F 75% 30.22 in 7.0 mi SSE 5.8 mph - N/A   Clear
2:54 PM 37.4 °F 33.8 °F 30.2 °F 75% 30.22 in 7.0 mi SSE 4.6 mph - N/A   Clear
3:13 PM 37.4 °F 32.8 °F 30.2 °F 75% 30.23 in 7.0 mi SSE 5.8 mph - N/A   Clear
3:33 PM 37.4 °F - 30.2 °F 75% 30.23 in 7.0 mi Calm Calm - N/A   Clear
3:54 PM 37.4 °F - 30.2 °F 75% 30.23 in 7.0 mi Calm Calm - N/A   Clear
4:14 PM 37.4 °F - 30.2 °F 75% 30.23 in 7.0 mi Calm Calm - N/A   Clear
4:33 PM 37.4 °F - 30.2 °F 75% 30.23 in 7.0 mi Calm Calm - N/A   Clear
4:54 PM 37.4 °F - 30.2 °F 75% 30.23 in 7.0 mi Calm Calm - N/A   Clear
5:14 PM 37.4 °F - 30.2 °F 75% 30.23 in 7.0 mi Calm Calm - N/A   Clear
5:33 PM 37.4 °F 34.9 °F 30.2 °F 75% 30.23 in 7.0 mi SSE 3.5 mph - N/A   Clear
5:54 PM 37.4 °F 33.8 °F 30.2 °F 75% 30.23 in 7.0 mi SSE 4.6 mph - N/A   Clear
6:14 PM 37.4 °F 33.8 °F 32.0 °F 81% 30.23 in 7.0 mi South 4.6 mph - N/A   Clear
6:33 PM 39.2 °F 34.2 °F 32.0 °F 75% 30.23 in 10.0 mi South 6.9 mph - N/A   Clear
6:54 PM 41.0 °F 36.4 °F 32.0 °F 70% 30.23 in 10.0 mi South 6.9 mph - N/A   Clear
7:13 PM 41.0 °F 37.1 °F 32.0 °F 70% 30.23 in 10.0 mi South 5.8 mph - N/A   Clear
7:34 PM 41.0 °F 36.4 °F 33.8 °F 76% 30.23 in 10.0 mi South 6.9 mph - N/A   Clear
7:53 PM 41.0 °F 35.2 °F 33.8 °F 76% 30.23 in 10.0 mi South 9.2 mph - N/A   Clear
8:14 PM 41.0 °F 37.1 °F 33.8 °F 76% 30.24 in 10.0 mi South 5.8 mph - N/A   Clear
8:54 PM 41.0 °F 37.1 °F 33.8 °F 76% 30.24 in 10.0 mi South 5.8 mph - N/A   Scattered Clouds
9:14 PM 41.0 °F 36.4 °F 33.8 °F 76% 30.24 in 10.0 mi South 6.9 mph - N/A   Mostly Cloudy
9:33 PM 41.0 °F 37.1 °F 33.8 °F 76% 30.24 in 10.0 mi South 5.8 mph - N/A   Mostly Cloudy
9:53 PM 41.0 °F 35.8 °F 32.0 °F 70% 30.23 in 10.0 mi South 8.1 mph - N/A   Mostly Cloudy
10:14 PM 39.2 °F 35.9 °F 32.0 °F 75% 30.24 in 10.0 mi South 4.6 mph - N/A   Scattered Clouds
10:33 PM 39.2 °F 35.9 °F 32.0 °F 75% 30.24 in 10.0 mi South 4.6 mph - N/A   Scattered Clouds
10:54 PM 39.2 °F 37.0 °F 32.0 °F 75% 30.24 in 10.0 mi South 3.5 mph - N/A   Mostly Cloudy
11:13 PM 39.2 °F 37.0 °F 32.0 °F 75% 30.24 in 10.0 mi South 3.5 mph - N/A   Light Drizzle
11:33 PM 39.2 °F 37.0 °F 32.0 °F 75% 30.24 in 10.0 mi South 3.5 mph - N/A   Scattered Clouds
11:54 PM 39.2 °F 35.9 °F 32.0 °F 75% 30.24 in 10.0 mi South 4.6 mph - N/A   Scattered Clouds